Stations météo

réclame
Mon MeteoGroup
Baruth, Allemagne (10376): Température de l'air & dewpoint: 18.05.2019 03:00:00 - 24.05.2019 03:00:00 (CEST)Baruth, Allemagne (10376): Température de l'air 5cm & Température de l'air -5cm: 18.05.2019 03:00:00 - 24.05.2019 03:00:00 (CEST)Baruth, Allemagne (10376): Température de l'air -20cm & Température de l'air -100cm: 18.05.2019 03:00:00 - 24.05.2019 03:00:00 (CEST)Baruth, Allemagne (10376): Vitesse du vent & gusts: 18.05.2019 03:00:00 - 24.05.2019 03:00:00 (CEST)Baruth, Allemagne (10376): Direction du vent: 18.05.2019 03:00:00 - 24.05.2019 03:00:00 (CEST)Baruth, Allemagne (10376): reduced air pressure: 18.05.2019 03:00:00 - 24.05.2019 03:00:00 (CEST)Baruth, Allemagne (10376): visibility: 18.05.2019 03:00:00 - 24.05.2019 03:00:00 (CEST)Baruth, Allemagne (10376): Ensoleillement: 18.05.2019 03:00:00 - 24.05.2019 03:00:00 (CEST)Baruth, Allemagne (10376): Quantités de précipitations: 18.05.2019 03:00:00 - 24.05.2019 03:00:00 (CEST)
Date & Time tt [°C] td [°C] tt 5cm [°C] tt -5cm [°C] tt -20cm [°C] tt -100cm [°C] ff [km/h] ff [knt] fx [km/h] fx [knt] dd ppp [hPa] vv [km] sd [min] rr [mm]
24.05.2019 03:00:00 6,1 5,6 4,7 13,2 17,5 13,4 3 1 6 3 E 1016,9 16 0 0,0
24.05.2019 02:00:00 6,4 5,8 4,7 14,1 18,2 13,4 3 2 6 3 E 1017,2 19 0 0,0
24.05.2019 01:00:00 7,1 6,1 5,4 15,1 18,8 13,4 4 2 7 4 E 1017,2 24 0 0,0
24.05.2019 00:00:00 8,2 6,5 6,7 16,3 19,5 13,4 4 2 6 4 ESE 1017,4 36 0 0,0
23.05.2019 23:00:00 10,1 7,3 8,4 17,7 20,2 13,4 2 1 5 3 ESE 1017,5 48 0 0,0
23.05.2019 22:00:00 11,3 7,4 9,7 19,2 20,8 13,4 0 0 2 1 N 1017,5 61 0 0,0
23.05.2019 21:00:00 14,3 7,0 12,0 21,4 21,4 13,4 0 0 7 4 N 1017,2 69 4 0,0
23.05.2019 20:00:00 18,2 5,5 17,2 23,9 21,6 13,4 3 1 14 7 N 1017,0 70 56 0,0
23.05.2019 19:00:00 18,7 4,7 20,6 26,2 21,6 13,4 6 3 23 13 N 1017,1 70 59 0,0
23.05.2019 18:00:00 19,6 5,2 22,7 27,8 21,3 13,5 10 5 24 13 NW 1017,3 58 59 0,0
23.05.2019 17:00:00 19,0 5,3 22,2 28,8 20,8 13,5 11 6 27 15 NW 1017,5 55 60 0,0
23.05.2019 16:00:00 18,3 3,2 22,0 28,9 20,0 13,5 14 8 27 15 WNW 1017,7 50 59 0,0
23.05.2019 15:00:00 18,6 3,4 22,8 29,4 19,0 13,5 11 6 28 15 NW 1018,0 57 60 0,0
23.05.2019 14:00:00 18,6 1,7 23,5 29,2 17,8 13,6 8 4 28 15 NNW 1018,4 35 60 0,0
23.05.2019 13:00:00 17,8 3,2 21,8 27,0 16,4 13,6 12 6 26 14 NW 1018,6 47 60 0,0
23.05.2019 12:00:00 17,2 5,8 21,4 24,1 15,2 13,6 9 5 26 14 WNW 1018,7 46 60 0,0
23.05.2019 11:00:00 14,7 6,7 16,5 20,7 14,2 13,6 12 6 23 12 W 1019,1 61 58 0,0
23.05.2019 10:00:00 14,0 6,7 17,6 17,9 13,5 13,6 11 6 25 13 WNW 1019,0 64 60 0,0
23.05.2019 09:00:00 13,0 7,6 15,1 14,7 13,0 13,7 11 6 22 12 WNW 1018,9 34 60 0,0
23.05.2019 08:00:00 10,2 7,4 11,4 11,2 13,0 13,7 10 6 19 10 W 1019,0 27 25 0,0
23.05.2019 07:00:00 8,1 6,8 7,5 10,7 13,2 13,7 10 5 19 10 W 1018,6 17 0 0,0
23.05.2019 06:00:00 9,7 7,6 9,4 11,0 13,4 13,7 12 6 17 9 W 1018,2 32 0 0,0
23.05.2019 05:00:00 10,3 7,8 10,0 11,2 13,6 13,7 9 5 18 10 WNW 1018,1 35 0 0,0
23.05.2019 04:00:00 10,8 7,7 10,5 11,3 13,7 13,7 9 5 18 10 WNW 1017,9 40 0 0,0
23.05.2019 03:00:00 11,0 7,7 10,5 11,5 13,9 13,7 10 5 19 10 WNW 1017,6 38 0 0,0
23.05.2019 02:00:00 11,1 8,1 10,8 11,8 14,1 13,8 12 6 23 12 WNW 1017,5 37 0 0,0
23.05.2019 01:00:00 11,6 8,2 11,2 11,9 14,3 13,8 11 6 23 12 WNW 1017,3 42 0 0,0
23.05.2019 00:00:00 12,0 7,8 11,7 12,1 14,5 13,8 12 7 28 15 WNW 1017,0 47 0 0,0
22.05.2019 23:00:00 12,3 8,1 11,9 12,4 14,7 13,8 16 9 34 18 WNW 1016,7 42 0 0,0
22.05.2019 22:00:00 12,5 8,7 12,2 12,7 14,9 13,8 13 7 29 15 WNW 1016,4 35 0 0,0
22.05.2019 21:00:00 12,6 9,3 12,2 13,0 15,1 13,8 12 7 30 16 WNW 1015,9 28 0 0,0
22.05.2019 20:00:00 12,3 9,8 11,7 13,2 15,3 13,8 14 7 27 14 WNW 1015,2 20 0 0,0
22.05.2019 19:00:00 12,0 10,1 11,6 13,4 15,5 13,8 15 8 32 18 WNW 1015,1 15 0 0,0
22.05.2019 18:00:00 11,8 10,2 11,4 13,7 15,7 13,8 16 9 34 19 WNW 1014,8 9 0 0,1
22.05.2019 17:00:00 12,0 10,1 11,8 13,9 15,9 13,8 18 10 38 20 WNW 1014,6 13 0 0,0
22.05.2019 16:00:00 12,2 10,0 11,9 14,2 16,1 13,7 17 9 34 18 NW 1014,1 13 0 0,0
22.05.2019 15:00:00 12,0 10,6 11,8 14,6 16,3 13,7 18 10 46 25 WNW 1013,9 11 0 0,0
22.05.2019 14:00:00 11,9 10,9 12,0 15,0 16,4 13,7 19 10 31 17 WNW 1013,6 9 0 0,0
22.05.2019 13:00:00 12,0 10,8 12,0 15,1 16,6 13,7 18 10 38 20 WNW 1013,3 15 0 0,0
22.05.2019 12:00:00 11,9 10,9 12,1 14,9 16,8 13,7 18 10 34 19 WNW 1012,8 12 0 0,0
22.05.2019 11:00:00 11,8 10,8 11,8 15,0 17,0 13,7 18 10 37 20 WNW 1012,4 11 0 0,0
22.05.2019 10:00:00 11,8 10,7 11,7 15,1 17,3 13,6 17 9 35 19 WNW 1011,8 15 0 0,3
22.05.2019 09:00:00 12,2 11,5 12,3 15,5 17,6 13,6 22 12 36 20 WNW 1011,0 12 0 1,4
22.05.2019 08:00:00 12,3 11,7 12,4 15,5 18,0 13,6 18 10 40 22 WNW 1010,8 4,0 0 1,5
22.05.2019 07:00:00 13,1 12,3 12,9 16,1 18,3 13,6 15 8 29 16 WNW 1010,3 6 0 0,6
22.05.2019 06:00:00 13,5 12,7 13,4 16,8 18,6 13,6 14 8 30 16 WNW 1010,0 3,4 0 0,0
22.05.2019 05:00:00 14,6 12,5 14,7 17,4 18,9 13,5 13 7 30 16 NW 1009,4 21 0 0,0
22.05.2019 04:00:00 14,7 12,9 14,8 17,8 19,3 13,5 14 8 33 18 WNW 1009,2 11 0 0,0
22.05.2019 03:00:00 15,8 13,5 15,8 18,2 19,6 13,5 13 7 29 16 WNW 1008,7 12 0 0,0
22.05.2019 02:00:00 16,3 14,0 16,2 18,6 20,0 13,5 16 8 30 16 W 1008,4 13 0 0,0
22.05.2019 01:00:00 17,0 13,7 16,6 19,1 20,4 13,5 13 7 34 18 WNW 1008,3 18 0 0,0
22.05.2019 00:00:00 17,6 14,2 17,2 19,7 20,8 13,5 16 9 36 19 WNW 1008,1 18 0 0,0
21.05.2019 23:00:00 18,3 13,5 18,0 20,4 21,2 13,4 12 6 27 15 NW 1007,7 32 0 0,0
21.05.2019 22:00:00 19,7 12,8 19,0 21,4 21,6 13,4 11 6 27 15 NW 1007,0 39 0 0,0
21.05.2019 21:00:00 20,8 12,1 19,9 22,7 22,0 13,4 8 5 18 10 WNW 1006,2 50 27 0,0
21.05.2019 20:00:00 22,4 11,3 21,7 24,6 22,2 13,4 9 5 22 12 NW 1005,6 55 60 0,0
21.05.2019 19:00:00 23,2 11,4 24,5 26,2 22,1 13,4 9 5 22 12 WNW 1005,2 57 60 0,0
21.05.2019 18:00:00 22,4 11,9 23,1 27,2 21,9 13,4 11 6 20 11 WNW 1005,0 62 22 0,0
21.05.2019 17:00:00 23,4 11,5 26,4 28,0 21,7 13,4 11 6 18 10 WNW 1005,1 58 31 0,0
21.05.2019 16:00:00 22,0 12,6 22,4 27,6 21,3 13,4 5 3 18 10 N 1005,1 49 11 0,0
21.05.2019 15:00:00 23,4 12,8 27,4 29,4 20,5 13,5 8 5 21 11 SW 1004,8 41 46 0,0
21.05.2019 14:00:00 21,8 11,9 23,8 28,0 19,6 13,4 6 3 15 8 SSW 1004,9 62 31 0,0
21.05.2019 13:00:00 22,1 12,7 24,6 26,7 18,7 13,4 5 3 11 6 SE 1004,7 65 32 0,0
21.05.2019 12:00:00 21,4 12,4 24,2 25,8 17,7 13,4 6 4 22 12 SSE 1004,5 51 54 0,0
21.05.2019 11:00:00 20,2 12,4 23,1 24,2 16,7 13,4 9 5 15 8 SE 1004,3 36 60 0,0
21.05.2019 10:00:00 18,6 12,9 20,0 21,2 15,8 13,4 7 4 13 7 ESE 1004,2 33 60 0,0
21.05.2019 09:00:00 16,8 13,8 17,4 18,2 15,2 13,4 7 4 12 6 SE 1003,9 24 60 0,0
21.05.2019 08:00:00 14,1 12,0 14,6 14,8 15,0 13,4 2 1 6 3 E 1003,8 11 60 0,0
21.05.2019 07:00:00 11,1 11,0 11,6 12,6 15,2 13,4 4 2 10 5 E 1003,5 1,4 3 0,0
21.05.2019 06:00:00 10,1 10,0 9,4 11,9 15,6 13,4 5 3 9 5 ENE 1003,3 5 2 0,0
21.05.2019 05:00:00 9,8 9,8 8,2 12,1 16,0 13,3 3 2 9 5 E 1002,8 0,3 0 0,0
21.05.2019 04:00:00 9,9 9,9 7,7 12,5 16,5 13,3 6 3 7 4 SSE 1002,6 0,5 0 0,0
21.05.2019 03:00:00 9,5 9,5 8,4 12,9 17,0 13,3 3 2 8 4 SE 1002,7 0,1 0 0,0
21.05.2019 02:00:00 9,0 8,9 8,3 13,5 17,5 13,3 4 2 6 4 SE 1002,5 0,6 0 0,0
21.05.2019 01:00:00 10,8 10,6 9,0 14,3 18,1 13,3 3 1 8 4 ESE 1002,1 3,8 0 0,0
21.05.2019 00:00:00 11,0 10,4 9,7 15,3 18,6 13,2 4 2 11 6 ENE 1002,3 7 0 0,0
20.05.2019 23:00:00 12,7 11,9 10,9 16,5 19,2 13,2 6 3 13 7 ESE 1001,8 16 0 0,0
20.05.2019 22:00:00 15,2 12,7 13,9 18,1 19,6 13,2 10 5 18 10 ESE 1001,5 43 0 0,0
20.05.2019 21:00:00 16,7 15,6 16,4 19,3 19,9 13,2 4 2 15 8 E 1001,0 10 0 0,0
20.05.2019 20:00:00 17,3 15,9 17,2 20,2 20,1 13,1 11 6 16 9 SE 1001,0 14 0 0,0
20.05.2019 19:00:00 17,8 15,2 17,4 20,5 20,3 13,1 5 3 20 11 ESE 1000,6 26 6 0,0
20.05.2019 18:00:00 17,1 16,2 17,0 20,1 20,7 13,1 8 4 20 11 N 1000,3 9 0 4,0
20.05.2019 17:00:00 17,7 16,6 17,5 21,4 21,1 13,1 4 2 10 5 ESE 1001,1 3,9 0 1,0
20.05.2019 16:00:00 18,5 15,6 17,7 23,3 21,2 13,1 5 3 12 7 NNE 1000,6 5 0 0,3
20.05.2019 15:00:00 22,4 13,0 22,7 25,2 21,1 13,0 6 3 19 10 ENE 1001,2 31 0 0,0
20.05.2019 14:00:00 23,5 11,0 25,6 27,4 20,6 13,0 9 5 28 15 E 1001,5 44 13 0,0
20.05.2019 13:00:00 23,1 10,8 24,8 26,8 20,0 13,0 13 7 23 12 E 1001,8 46 6 0,0
20.05.2019 12:00:00 23,5 11,0 27,5 26,7 19,1 12,9 9 5 29 16 ENE 1001,8 41 42 0,0
20.05.2019 11:00:00 22,9 12,8 27,5 24,7 18,2 12,9 7 4 19 10 NNE 1002,1 36 60 0,0
20.05.2019 10:00:00 20,3 12,5 23,9 21,0 17,8 12,9 5 3 13 7 NE 1002,4 17 47 0,0
20.05.2019 09:00:00 17,4 12,8 18,4 18,9 17,6 12,8 5 3 14 8 NE 1002,6 18 48 0,0
20.05.2019 08:00:00 16,7 13,0 18,5 16,8 17,6 12,8 6 3 15 8 ENE 1002,7 17 46 0,0
20.05.2019 07:00:00 13,8 12,5 13,2 15,4 18,0 12,7 5 3 10 6 ENE 1002,8 10 23 0,0
20.05.2019 06:00:00 11,1 11,0 9,5 15,4 18,5 12,7 5 3 12 6 E 1002,9 4,2 0 0,0
20.05.2019 05:00:00 10,8 10,5 9,0 16,0 19,0 12,7 6 3 12 7 ENE 1002,8 1,5 0 0,0
20.05.2019 04:00:00 11,6 11,3 9,0 16,7 19,5 12,6 5 3 11 6 ENE 1003,2 5 0 0,0
20.05.2019 03:00:00 12,5 11,3 10,4 17,5 20,0 12,6 7 4 10 6 E 1003,6 8 0 0,0
20.05.2019 02:00:00 13,4 11,7 11,0 18,2 20,6 12,5 5 3 14 8 E 1003,6 10 0 0,0
20.05.2019 01:00:00 14,5 12,3 12,1 19,1 21,2 12,5 3 2 9 5 NE 1003,7 13 0 0,0
20.05.2019 00:00:00 15,9 13,0 12,0 20,3 21,8 12,4 4 2 7 4 N 1003,5 23 0 0,0
19.05.2019 23:00:00 17,9 12,8 14,9 21,8 22,3 12,4 2 1 12 6 W 1003,8 32 0 0,0
19.05.2019 22:00:00 18,9 12,9 18,4 22,7 22,8 12,4 12 7 28 15 SSW 1004,0 38 0 0,0
19.05.2019 21:00:00 20,8 13,3 19,6 23,9 23,3 12,4 6 4 16 8 NNE 1003,2 26 0 0,0
19.05.2019 20:00:00 21,3 13,9 20,1 25,6 23,8 12,3 5 3 18 10 N 1003,0 27 0 0,0
19.05.2019 19:00:00 23,2 13,7 22,6 28,0 23,9 12,3 6 4 18 10 NNE 1003,1 26 19 0,0
19.05.2019 18:00:00 25,9 10,0 28,4 29,2 23,9 12,3 6 3 21 11 NE 1003,0 47 15 0,0
19.05.2019 17:00:00 25,0 8,6 25,8 32,3 23,3 12,3 11 6 32 17 E 1003,5 45 42 0,0
19.05.2019 16:00:00 25,8 8,9 28,7 32,9 22,4 12,3 9 5 29 16 SE 1003,7 43 57 0,0
19.05.2019 15:00:00 25,9 7,2 30,7 31,9 21,4 12,2 14 8 29 16 SE 1004,0 57 50 0,0
19.05.2019 14:00:00 26,3 11,6 32,0 31,4 20,2 12,2 15 8 29 16 SE 1004,4 34 52 0,0
19.05.2019 13:00:00 24,4 9,8 28,3 30,0 19,0 12,2 14 7 36 19 ESE 1004,9 38 58 0,0
19.05.2019 12:00:00 24,0 10,3 28,5 27,3 17,8 12,1 13 7 30 16 ESE 1005,2 40 60 0,0
19.05.2019 11:00:00 22,5 9,5 24,4 24,9 16,8 12,1 17 9 36 19 SE 1005,7 34 57 0,0
19.05.2019 10:00:00 21,2 12,5 24,2 21,6 16,0 12,1 8 5 13 7 SE 1006,0 20 60 0,0
19.05.2019 09:00:00 18,1 11,5 20,5 18,2 15,6 12,0 7 4 13 7 SE 1006,4 19 60 0,0
19.05.2019 08:00:00 14,9 9,7 16,4 15,2 15,6 12,0 7 4 13 7 E 1006,6 16 59 0,0
19.05.2019 07:00:00 11,3 8,9 10,7 13,5 15,8 11,9 5 3 11 6 E 1006,7 13 18 0,0
19.05.2019 06:00:00 9,9 8,4 9,6 13,0 16,2 11,9 8 4 12 6 ESE 1006,7 13 2 0,0
19.05.2019 05:00:00 9,3 8,1 7,7 13,3 16,7 11,9 7 4 10 6 E 1006,7 13 0 0,0
19.05.2019 04:00:00 8,8 7,9 7,4 13,7 17,3 11,8 6 4 10 5 E 1006,6 11 0 0,0
19.05.2019 03:00:00 7,8 7,0 6,0 14,4 17,9 11,8 4 2 8 5 ENE 1007,0 10 0 0,0
19.05.2019 02:00:00 8,5 7,8 6,4 15,3 18,5 11,7 3 2 5 3 ESE 1006,8 12 0 0,0
19.05.2019 01:00:00 9,0 7,9 7,1 16,2 19,2 11,7 4 2 8 4 ESE 1007,1 14 0 0,0
19.05.2019 00:00:00 10,3 8,5 8,1 17,4 19,9 11,7 3 2 5 3 ESE 1007,2 21 0 0,0
18.05.2019 23:00:00 12,0 9,1 9,2 18,7 20,6 11,7 3 2 6 3 E 1007,3 27 0 0,0
18.05.2019 22:00:00 13,5 9,1 9,9 20,4 21,3 11,6 4 2 6 3 E 1007,1 34 0 0,0
18.05.2019 21:00:00 18,4 8,6 13,1 22,6 21,8 11,6 6 3 17 9 SE 1006,4 49 45 0,0
18.05.2019 20:00:00 20,7 8,1 19,0 25,2 22,1 11,6 11 6 22 12 SE 1006,2 53 60 0,0
18.05.2019 19:00:00 22,4 9,3 23,6 27,4 22,1 11,6 12 7 24 13 SE 1006,1 69 60 0,0
18.05.2019 18:00:00 23,2 9,5 25,6 28,9 21,7 11,6 14 7 31 17 SE 1006,1 47 60 0,0
18.05.2019 17:00:00 23,0 8,1 25,7 30,1 21,1 11,6 21 11 35 19 SSE 1006,3 42 60 0,0
18.05.2019 16:00:00 22,8 9,2 26,3 30,6 20,2 11,6 19 11 35 19 SSE 1006,5 36 60 0,0
18.05.2019 15:00:00 22,5 8,7 27,0 30,5 19,1 11,6 20 11 37 20 SE 1006,8 51 60 0,0
18.05.2019 14:00:00 22,3 10,0 27,1 29,7 17,9 11,5 16 9 36 20 SE 1006,9 32 60 0,0
18.05.2019 13:00:00 20,6 8,8 24,7 27,9 16,5 11,5 19 11 36 19 SE 1007,5 44 60 0,0
18.05.2019 12:00:00 19,7 10,1 23,3 25,8 15,2 11,5 16 8 30 16 ESE 1007,9 35 58 0,0
18.05.2019 11:00:00 19,1 9,8 23,0 22,7 14,0 11,5 16 9 28 15 SE 1008,1 25 60 0,0
18.05.2019 10:00:00 17,1 9,6 20,3 19,2 13,1 11,5 15 8 24 13 ESE 1008,5 23 60 0,0
18.05.2019 09:00:00 14,9 9,2 17,0 15,7 12,6 11,5 14 7 23 12 SE 1009,1 20 60 0,0
18.05.2019 08:00:00 12,3 10,1 12,7 12,4 12,5 11,4 8 5 16 9 ESE 1009,0 8 60 0,0
18.05.2019 07:00:00 8,4 8,2 8,9 10,3 12,7 11,4 8 4 11 6 ESE 1009,1 0,3 17 0,0
18.05.2019 06:00:00 6,4 6,0 6,0 9,6 13,1 11,4 6 3 11 6 ESE 1009,3 0,1 0 0,0
18.05.2019 05:00:00 6,6 6,2 5,2 10,0 13,6 11,4 8 4 12 7 ESE 1009,3 0,2 0 0,0
18.05.2019 04:00:00 9,1 9,1 7,3 10,6 14,1 11,4 9 5 12 7 ESE 1009,3 3,3 0 0,0
18.05.2019 03:00:00 8,8 8,4 4,3 11,5 14,6 11,4 5 3 9 5 E 1009,2 4,0 0 0,0

tt = Température de l'air
td = dewpoint
tt 5cm = Température de l'air 5cm
tt -5cm = Température de l'air -5cm
tt -20cm = Température de l'air -20cm
tt -100cm = Température de l'air -100cm
ff = Vitesse du vent
fx = gusts
dd = Direction du vent
ppp = reduced air pressure
vv = visibility
sd = Ensoleillement
rr = Quantités de précipitations

stations d'obs. à proximité